Home > Weather > Tonk > Past weeks

Flag for India Past Weather in Tonk, Rajasthan, India — Yesterday and Last 2 Weeks

Now
90 °F

Passing clouds.


Feels Like: 96 °F
Forecast: 85 / 99 °F
Wind: 3 mph from Northwest

Location: Jaipur / Sanganer

Current Time: Jun 27, 2016 at 12:42:16 AM

Latest Report: Jun 27, 2016 at 12:00 AM


Visibility: 2 mi

Pressure: 29.62 "Hg

Humidity: 55%

Dew Point: 72 °F

Location of TonkLocation

Past Weather in Tonk — Graph

°F

Tonk Temperature Yesterday

Maximum temperature yesterday: 102 °F (at 1:00 PM)
Minimum temperature yesterday: 84 °F (at 5:00 AM)
Average temperature yesterday: 93 °F

High & Low Weather Summary for the Past Weeks

 TemperatureHumidityPressure
High108 °F (Jun 17, 4:30 PM)89% (Jun 21, 9:00 PM)29.74 "Hg (Jun 21, 9:00 PM)
Low81 °F (Jun 21, 5:30 PM)19% (Jun 17, 5:00 PM)29.45 "Hg (Jun 15, 4:00 PM)
Average94 °F44%29.59 "Hg
* Reported Jun 11 10:30 PM — Jun 26 11:00 PM, Tonk, Weather by CustomWeather, © 2016

Note: Actual official high and low records may vary slightly from our data, if they occured in-between our weather recording intervals... More about our weather records

Advertising

Tonk Weather History for the Previous 24 Hours

Scroll right to see more
 ConditionsComfort  
Time TempWeatherWind HumidityBarometerVisibility
11:00 PM
Sun, Jun 26
91 °FPassing clouds.7 mph52%29.62 "Hg2 mi
10:00 PM95 °FPassing clouds.1 mph47%29.59 "Hg2 mi
9:00 PM95 °FPassing clouds.2 mph50%29.59 "Hg2 mi
8:30 PM93 °FPassing clouds.No wind49%29.56 "Hg2 mi
8:00 PM93 °FPassing clouds.No wind49%29.53 "Hg2 mi
7:30 PM95 °FScattered clouds.No wind47%29.53 "Hg2 mi
7:00 PM97 °FScattered clouds.3 mph44%29.53 "Hg2 mi
6:30 PM99 °FScattered clouds.1 mph33%29.53 "Hg2 mi
6:00 PM99 °FScattered clouds.1 mph35%29.50 "Hg2 mi
5:30 PM99 °FPartly sunny.No wind39%29.50 "Hg2 mi
5:00 PM97 °FPartly sunny.No wind39%29.50 "Hg2 mi
4:30 PM95 °FPartly sunny.No wind41%29.53 "Hg2 mi
4:00 PM93 °FScattered clouds.7 mph44%29.56 "Hg2 mi
3:30 PM91 °FScattered clouds.10 mph52%29.59 "Hg2 mi
3:00 PM93 °FScattered clouds.9 mph47%29.59 "Hg2 mi
2:30 PM91 °FThunderstorms. Scattered clouds.16 mph52%29.59 "Hg2 mi
2:00 PM100 °FScattered clouds.5 mph35%29.59 "Hg2 mi
1:30 PM100 °FScattered clouds.5 mph35%29.59 "Hg3 mi
1:00 PM102 °FScattered clouds.2 mph33%29.62 "Hg3 mi
12:30 PM100 °FHaze.6 mph37%29.62 "Hg3 mi
12:00 PM99 °FHaze.5 mph39%29.65 "Hg3 mi
11:30 AM97 °FHaze.7 mph42%29.65 "Hg3 mi
11:00 AM97 °FHaze.6 mph42%29.65 "Hg3 mi
10:30 AM95 °FHaze.5 mph44%29.65 "Hg2 mi
10:00 AM93 °FHaze.7 mph47%29.65 "Hg2 mi
9:30 AM91 °FScattered clouds.7 mph49%29.65 "Hg2 mi
8:30 AM90 °FScattered clouds.5 mph52%29.68 "Hg2 mi
8:00 AM86 °FScattered clouds.8 mph59%29.68 "Hg2 mi
7:30 AM86 °FScattered clouds.7 mph62%29.68 "Hg2 mi
7:00 AM86 °FScattered clouds.7 mph62%29.65 "Hg2 mi
6:30 AM84 °FScattered clouds.2 mph66%29.65 "Hg2 mi
6:00 AM84 °FPassing clouds.5 mph66%29.65 "Hg2 mi
5:00 AM84 °FPartly cloudy.1 mph66%29.62 "Hg2 mi
4:00 AM86 °FPartly cloudy.2 mph62%29.62 "Hg2 mi
2:00 AM88 °FPartly cloudy.6 mph59%29.65 "Hg2 mi
1:00 AM88 °FPartly cloudy.5 mph59%29.65 "Hg2 mi
12:00 AM88 °FPartly cloudy.8 mph59%29.65 "Hg2 mi
Weather by CustomWeather, © 2016

See weather overviewHow to use our weather pages